Regional Weather Roundup
Issued by NWS

Home | Current Version | Previous Version | Graphics & Text | Print | Product List | Glossary On
Versions: 1 2 3 4 5 6 7 8 9 10 11 12 13 14 15 16 17 18 19 20 21 22 23 24 25 26 27 28 29 30 31 32 33 34 35 36 37 38 39 40 41 42 43 44 45 46 47 48 49 50
000
ASUS45 KTFX 011919
RWRMT
MONTANA HOURLY WEATHER ROUNDUP
NATIONAL WEATHER SERVICE GREAT FALLS MT
119 PM MDT FRI AUG 1 2014

NOTE: "FAIR" INDICATES FEW OR NO CLOUDS BELOW 12000 FEET WITH NO
SIGNIFICANT WEATHER AND/OR OBSTRUCTIONS TO VISIBILITY.

* THESE STATIONS ARE NOT UNDER NWS QUALITY CONTROL. THEY DO NOT
   REPORT WEATHER SUCH AS PRECIPITATION OR FOG.

MTZ001>007-043-012000-
WEST OF THE DIVIDE
CITY           SKY/WX    TMP DP  RH WIND       PRES   REMARKS
KALISPELL      PTSUNNY   84  54  36 VRB6      30.11F
MISSOULA       PTCLDY    90  43  19 CALM      30.10F
BUTTE          PTCLDY    82  34  18 SE8G22    30.27F
MULLAN PASS    CLOUDY    75  43  32 CALM      30.30S
* ESSEX        N/A      N/A N/A N/A N/A        N/A
* LINCOLN      N/A       83  46  27 S2         N/A
* LOOKOUT PASS N/A       78  43  29 S4         N/A
* POLSON       N/A       86  47  26 NW3        N/A
* RONAN APT    PTCLDY    82  52  35 N5         N/A
* SEELEY LAKE  N/A       83  42  23 W4         N/A
* THOMP F APT  CLOUDY    80  45  29 SW4G10     N/A
$$

MTZ008-052>055-012000-
SOUTHWEST MONTANA
CITY           SKY/WX    TMP DP  RH WIND       PRES   REMARKS
BOZEMAN        PTCLDY    82  43  25 W6        30.20F
DILLON         SUNNY     81  43  26 NE10      30.23F
W YELLOWSTONE  PTCLDY    77  36  23 NE7       30.31F
* THREE FORKS  SUNNY     82  52  35 N/A        N/A
* BOULDER HILL N/A       78  42  28 NE8        N/A
* MONIDA PASS  N/A       74  39  28 SW2G10     N/A
* RAYNOLDS PAS N/A       78  55  45 SE4G9      N/A
* WHITEHALL    N/A       84  47  28 SE3G8      N/A
* WISE RIVER   N/A       80  37  21 SE9        N/A
$$

MTZ009>010-012-014-046-048-049-054-012000-
EAST SLOPES AND CENTRAL MONTANA
CITY           SKY/WX    TMP DP  RH WIND       PRES   REMARKS
CUT BANK       PTCLDY    81  54  39 N8        30.22F
GREAT FALLS    PTCLDY    84  52  33 CALM      30.19F
HELENA         SUNNY     86  43  22 NE5       30.17F
MALMSTROM AFB  PTCLDY    82  50  33 VRB3      30.19F
* CONRAD       SUNNY     82  57  43 N/A        N/A   HI  82
* DEARBORN     N/A       83  49  31 VRB10G15    N/A
* EAST GLACIER N/A       72  53  51 SE5        N/A
* MONARCH      N/A       79  47  32 NE5G15     N/A
* PENDROY      N/A       77  58  52 NE6G12     N/A
* ROGERS PASS  N/A       78  46  32 S8G13      N/A
* SAINT MARY   N/A       73  55  53 N7         N/A
* SWEET GRASS  N/A       77  57  50 NE14G19    N/A
* WHITE SULPH  N/A       84  46  26 NW5        N/A
$$

MTZ011-013-016-021-035-040-045-047-050-051-012000-
NORTH CENTRAL MONTANA
CITY           SKY/WX    TMP DP  RH WIND       PRES   REMARKS
HAVRE          SUNNY     88  52  29 N/A       30.13F
LEWISTOWN      PTCLDY    86  41  20 VRB3      30.21F
* FORT BENTON  PTCLDY    88  45  22 N7        30.15F
* CHESTER      N/A       84  47  28 E7G13      N/A
* DENTON       N/A       87  51  29 NW6G12     N/A
* GEYSER       N/A       85  48  28 E8         N/A
* JUDITH GAP   N/A       81  53  38 VRB10G18    N/A
* LOMA         N/A       88  46  23 NW10G15    N/A
$$

MTZ017>020-022>027-061-062-012000-
NORTHEAST MONTANA
CITY           SKY/WX    TMP DP  RH WIND       PRES   REMARKS
GLASGOW        SUNNY     86  55  35 S8        30.08F
GLENDIVE       SUNNY     84  52  33 E9G18     30.09S
JORDAN         SUNNY     88  50  27 N10G17    30.10S
SIDNEY         PTCLDY    82  57  43 NE15      30.10R HI  82
WOLF POINT     SUNNY     90  50  25 NE9       30.08F
* CIRCLE       N/A       85  57  39 NE4G11     N/A
* NAVAJO       N/A       79  57  47 N6G12      N/A
$$

MTZ028>042-056>058-012000-
SOUTHCENTRAL AND SOUTHEAST MONTANA
CITY           SKY/WX    TMP DP  RH WIND       PRES   REMARKS
BAKER          SUNNY     88  46  23 N/A       30.08F
BILLINGS       PTCLDY    90  46  22 VRB5      30.15F
LIVINGSTON     PTCLDY    86  39  19 E8        30.21F
MILES CITY     SUNNY     93  45  19 N13G20    30.06F
* LAUREL APT   PTCLDY    90  43  19 E5         N/A
* ROUNDUP APT  PTSUNNY   88  43  21 S11G16     N/A
* HYSHAM       N/A       90  49  24 NE4G13     N/A
* REED POINT   N/A       91  50  25 NW4G9      N/A
* ROSCOE HILL  N/A       82  42  24 N6         N/A
$$

REGIONAL REPORTS...DAKOTAS
CITY           SKY/WX    TMP DP  RH WIND       PRES   REMARKS
WILLISTON      CLOUDY    77  61  58 E7        30.10F
DICKINSON      CLOUDY    81  61  51 E14       30.08S HI  82
CROSBY         SUNNY     77  63  62 SE10      30.11F
TIOGA          PTSUNNY   73  63  71 SE9       30.14F
WATFORD CITY   PTSUNNY   72  63  73 SE10      30.07R
BISMARCK       SUNNY     88  57  35 VRB6G16   30.06F
GRAND FORKS    PTCLDY    81  61  51 N5        30.07S HI  82
FARGO          PTCLDY    82  59  46 N9        30.07S HI  82
BUFFALO SD     PTCLDY    88  50  27 N7        30.02S
RAPID CITY     TSTM      81  54  39 S15G23    30.10R
$$

REGIONAL REPORTS...WYOMING/IDAHO/WASHINGTON
CITY           SKY/WX    TMP DP  RH WIND       PRES   REMARKS
GILLETTE       PTCLDY    88  39  18 N6        30.17F
SHERIDAN       PTCLDY    90  39  17 VRB5      30.16F
CODY           PTCLDY   N/A N/A N/A N10       30.22F
YELLOWSTONE LA PTCLDY    72  37  28 E5        30.44F
SALMON         PTSUNNY   81  46  29 N6        30.12F
MULLAN PASS    CLOUDY    75  43  32 CALM      30.30S
SAND POINT     PTSUNNY   81  48  32 NE10      30.06F
SPOKANE        CLOUDY    81  46  29 NE8       30.06F
$$

REGIONAL REPORTS...ALBERTA
CITY           SKY/WX    TMP DP  RH WIND       PRES   REMARKS
CALGARY        PTSUNNY   75  52  45 E9        30.25F
LETHBRIDGE     PTCLDY    73  57  57 E3        30.22F
MEDICINE HAT   CLOUDY    81  55  41 N2        30.16F HI  81
EDMONTON       PTSUNNY   70  59  68 N8        30.24S
WATERTON GATE  N/A       73  54  51 NE6        N/A
CARDSTON       N/A       73  57  57 N3         N/A
MILK RIVER     N/A       79  57  47 N8         N/A
$$

REGIONAL REPORTS...SASKATCHEWAN
CITY           SKY/WX    TMP DP  RH WIND       PRES   REMARKS
SWIFT CURRENT  PTSUNNY   75  57  54 S5        30.12F
MOOSE JAW      PTSUNNY   81  64  56 NW5       30.09F HI  83
REGINA         SUNNY     81  61  51 SW5       30.10F HI  82
VAL MARIE      N/A       82  55  40 E6         N/A   HI  81
ASSINIBOIA     N/A       79  54  42 NW6        N/A
CORONACH       N/A       82  50  33 N7         N/A

$$



USA.gov is the U.S. government's official web portal to all federal, state and local government web resources and services.